Regional Weather Roundup
Issued by NWS

Home | Current Version | Previous Version | Text Only | Print | Product List | Glossary Off
Versions: 1 2 3 4 5 6 7 8 9 10 11 12 13 14 15 16 17 18 19 20 21 22 23 24 25 26 27 28 29 30 31 32 33 34 35 36 37 38 39 40 41 42 43 44 45 46 47 48 49 50

941
ASUS45 KABQ 131101
RWRNM
NEW MEXICO REGIONAL WEATHER ROUNDUP
NATIONAL WEATHER SERVICE ALBUQUERQUE NM
400 AM MST SAT FEB 13 2016

NOTE: "FAIR" MEANS FEW OR NO CLOUDS BELOW 12,000 FEET AGL WITH NO
       SIGNIFICANT WEATHER OR OBSTRUCTIONS TO VISION.

      THIS PRODUCT IS RELEASED AS TWO VERSIONS.  ONE VERSION NEAR
      THE TOP OF THE HOUR CONTAINING PRELIMINARY DATA FROM ALBUQUERQUE
      AND OTHER STATIONS.  A FINAL VERSION WITH ADDITIONAL DATA IS
      ISSUED ABOUT 10 MINUTES AFTER THE HOUR.

NMZ501-503-504-510>518-131200-
NORTHWEST PLATEAU/NORTHCENTRAL MOUNTAINS

CITY           SKY/WX    TMP DP  RH WIND       PRES   REMARKS
FARMINGTON     CLOUDY    29  24  82 E9        30.29F WCI  20
SANTA FE       CLOUDY    32  21  64 N10       30.30F WCI  24
TAOS           CLOUDY    27  21  80 N3        30.34F

$$
NMZ402-403-502-505>509-131200-
WESTCENTRAL MOUNTAINS/SOUTHWEST MOUNTAINS

CITY           SKY/WX    TMP DP  RH WIND       PRES   REMARKS
GALLUP         CLEAR     18  15  88 CALM      30.33S
SILVER CITY      N/A     36  14  41 N10       30.30F WCI  28

$$
NMZ407-409-411-412-131200-
SOUTHERN DESERTS

CITY           SKY/WX    TMP DP  RH WIND       PRES   REMARKS
DEMING         PTCLDY    33  12  41 NW3       30.25F
HOLLOMAN AFB   CLEAR     35  10  34 E8        30.25R WCI  29
ALAMOGORDO     CLOUDY    37   9  30 NE8       30.27S WCI  31
T OR C         MOCLDY    42  10  27 NW9       30.27R

$$
NMZ519>523-131200-
CENTRAL VALLEYS/CENTRAL HIGHLANDS

CITY           SKY/WX    TMP DP  RH WIND       PRES   REMARKS
ALBUQUERQUE    CLOUDY    40  21  46 CALM      30.30R
DOUBLE EAGLE   CLOUDY    29  19  65 NW5       30.31S WCI  24
MORIARTY ARPT  FAIR      20  17  87 N3        30.33F
CLINES CORNERS CLOUDY    38  17  42 SW7       30.30F WCI  33
BELEN          FAIR      31  15  51 N7        30.30S WCI  24
SOCORRO        NOT AVBL

$$
NMZ524>526-539-540-131200-
SOUTHCENTRAL MOUNTAINS

CITY           SKY/WX    TMP DP  RH WIND       PRES   REMARKS
RUIDOSO          N/A     39  14  35 W7        30.36S WCI  34

$$
NMZ527>531-131200-
NORTHEAST HIGHLANDS/NORTHEAST PLAINS

CITY           SKY/WX    TMP DP  RH WIND       PRES   REMARKS
LAS VEGAS      CLOUDY    37  20  50 S13       30.30F WCI  29
RATON          CLOUDY    25  19  78 NE7       30.26F WCI  17
CLAYTON        CLOUDY    36  25  64 SW12      30.23F WCI  28

$$
NMZ532>537-131200-
EASTCENTRAL PLAINS

CITY           SKY/WX    TMP DP  RH WIND       PRES   REMARKS
TUCUMCARI      CLEAR     39  27  62 SW10      30.27F WCI  32
CANNON AFB     CLEAR     36  28  74 SE2       30.30F
CLOVIS AIRPORT CLEAR     30  23  74 S6        30.32S WCI  24

$$
NMZ028-029-538-131200-
SOUTHEAST PLAINS

CITY           SKY/WX    TMP DP  RH WIND       PRES   REMARKS
ROSWELL        CLOUDY    36  23  59 N3        30.28S
ARTESIA        CLOUDY    34  23  64 NW7       30.28S WCI  28
CARLSBAD       CLOUDY    32  24  72 NW8       30.26F WCI  25
HOBBS          CLOUDY    37  28  70 E3        30.29F


$$




USA.gov is the U.S. government's official web portal to all federal, state and local government web resources and services.